Flag for Germany Weather past 2 weeks in Langenhagen, Lower Saxony, Germany

Now
61 °F

Partly sunny.


Feels Like: 61 °F
Forecast: 49 / 74 °F
Wind: 8 mph from Northwest

Location: Hannover

Current Time: Jul 31, 2015 at 12:05:41 PM

Latest Report: Jul 31, 2015 at 11:20 AM


Visibility: N/A

Pressure: 30.09 "Hg

Humidity: 59%

Dew point: 46 °F

Location of LangenhagenLocation

Historic Weather in Langenhagen — Graph

°F

Langenhagen temperature yesterday

Maximum temperature yesterday: 66 °F (at 2:20 PM)
Minimum temperature yesterday: 52 °F (at 10:50 PM)
Average temperature yesterday: 59 °F

Past Weeks' High & Low Weather Summary

 TemperatureHumidityPressure
High90 °F (Jul 17, 3:50 PM)100% (Jul 19, 10:50 AM)30.09 "Hg (Jul 19, 10:50 AM)
Low48 °F (Jul 31, 4:50 AM)33% (Jul 17, 3:50 PM)29.47 "Hg (Jul 25, 12:50 PM)
Average64 °F75%29.84 "Hg
* Reported Jul 16 10:20 AM — Jul 31 10:50 AM, Langenhagen, Weather by CustomWeather, © 2015

Note: Actual official high and low records may vary slightly from our data, if they occured in-between our weather recording intervals... More about our weather records

Advertising

Langenhagen weather history for previous 24 hours

 ConditionsComfort  
Time TempWeatherWind HumidityBarometerVisibility
10:50 AM
Fri, Jul 31
59 °FPartly sunny.12 mph63%30.09 "HgN/A
10:20 AM57 °FScattered clouds.9 mph63%30.09 "HgN/A
9:20 AM57 °FPassing clouds.13 mph72%30.09 "HgN/A
8:50 AM55 °FScattered clouds.8 mph77%30.09 "HgN/A
8:20 AM54 °FScattered clouds.8 mph82%30.09 "HgN/A
7:50 AM52 °FScattered clouds.9 mph88%30.09 "HgN/A
7:20 AM52 °FScattered clouds.7 mph88%30.07 "HgN/A
6:50 AM50 °FScattered clouds.7 mph88%30.07 "HgN/A
6:20 AM48 °FPassing clouds.7 mph94%30.07 "HgN/A
5:50 AM48 °FClear.6 mph94%30.07 "Hg10 mi
5:20 AM48 °FPassing clouds.5 mph94%30.07 "HgN/A
4:50 AM48 °FPassing clouds.7 mph94%30.07 "HgN/A
4:20 AM50 °FClear.8 mph88%30.07 "Hg10 mi
3:50 AM50 °FPassing clouds.8 mph94%30.04 "HgN/A
3:20 AM50 °FClear.7 mph94%30.04 "Hg10 mi
2:50 AM52 °FClear.8 mph88%30.04 "Hg10 mi
2:20 AM52 °FPassing clouds.8 mph88%30.04 "HgN/A
1:50 AM52 °FClear.7 mph88%30.04 "Hg10 mi
1:20 AM52 °FClear.9 mph88%30.04 "Hg10 mi
12:50 AM52 °FClear.8 mph88%30.04 "Hg10 mi
11:20 PM
Thu, Jul 30
54 °FClear.5 mph77%30.01 "Hg10 mi
10:50 PM52 °FPassing clouds.8 mph82%30.01 "HgN/A
10:20 PM54 °FPassing clouds.8 mph82%30.01 "HgN/A
9:50 PM55 °FScattered clouds.8 mph72%30.01 "HgN/A
9:20 PM57 °FScattered clouds.9 mph67%29.98 "HgN/A
8:50 PM59 °FScattered clouds.9 mph68%29.98 "HgN/A
8:20 PM61 °FScattered clouds.9 mph63%29.95 "HgN/A
7:50 PM63 °FScattered clouds.16 mph59%29.95 "HgN/A
7:20 PM63 °FScattered clouds.17 mph59%29.95 "HgN/A
6:50 PM63 °FScattered clouds.18 mph64%29.95 "HgN/A
6:20 PM64 °FScattered clouds.18 mph56%29.92 "HgN/A
5:50 PM64 °FScattered clouds.18 mph52%29.92 "HgN/A
5:20 PM64 °FScattered clouds.21 mph52%29.92 "HgN/A
4:50 PM64 °FScattered clouds.20 mph60%29.92 "HgN/A
4:20 PM64 °FScattered clouds.15 mph56%29.89 "HgN/A
3:50 PM64 °FScattered clouds.18 mph52%29.89 "HgN/A
3:20 PM66 °FPartly sunny.18 mph52%29.89 "HgN/A
2:50 PM66 °FPartly sunny.18 mph49%29.89 "HgN/A
2:20 PM66 °FPartly sunny.16 mph49%29.89 "HgN/A
1:50 PM64 °FPartly sunny.22 mph52%29.89 "HgN/A
1:20 PM64 °FPartly sunny.17 mph56%29.89 "HgN/A
12:50 PM64 °FPartly sunny.20 mph56%29.89 "HgN/A
12:20 PM63 °FPartly sunny.20 mph59%29.89 "HgN/A
Weather by CustomWeather, © 2015

See weather overviewHow to use our weather pages